{"data":{"norad_id":62797,"epoch":"2026-09-22T20:50:56.347872Z","epoch_age_seconds":113423,"freshness":"FRESH","line1":"1 62797U 25016N   26265.86870773  .00000062  00000+0  77968-4 0  9990","line2":"2 62797  88.9666  73.5331 0013384 241.4579 118.5226 13.51020199 85626","mean_motion":13.51020199,"eccentricity":0.0013384,"inclination_deg":88.9666,"raan_deg":73.5331,"arg_perigee_deg":241.4579,"mean_anomaly_deg":118.5226,"bstar":7.7968e-5,"rev_number":8562,"period_min":106.58611922056,"perigee_km":1058.5407726989,"apogee_km":1078.4739503258,"semimajor_km":7446.6443615123,"source":"CELESTRAK","updated_at":"2026-09-23T09:00:21.636651Z"}}